VGZ weather

Villa Garzón Airport
Villa Garzón, Putumayo Department, Colombia

Public forecast

Using degrees Celsius for public forecast. Weather courtesy of forecast.io.

Closest aviation weather report (METAR) to Villa Garzón Airport

Closest report is Tres De Mayo Airport, 29.1 nm (53.9 km) SSE. Retrieved 2020/08/07 23:00 UTC (7 minutes ago):

SKAS 072300Z 29003KT 9999 SCT020 BKN070 21/20 A3002

Closest aviation forecast (TAF) to Villa Garzón Airport

Forecast is more than 12 hours old.

Closest forecast is Nueva Loja Airport, 55.5 nm (102.7 km) SSW. Retrieved 2018/09/09 12:03 UTC (2 years ago):

TAF TAF SCDA 091040Z 0912/1012 19004KT 9999 OVC020 TX18/0917Z TN16/1006ZLVA0571 091200 GG EBBRYZYX EBBRYZYZ EGGYYBYA KMKMYTYX KWBCYMYX MPLBYFYX MPTOYMYX 091200 SEQUYZYX SAEQ01 SEQU 091200 RRB METAR SENL 091200Z 36002KT 9999 SCT030 BKN100 22/21 Q1013 RMK A2994